Time,TemperatureF,DewpointF,PressureIn,WindDirection,WindDirectionDegrees,WindSpeedMPH,WindSpeedGustMPH,Humidity,HourlyPrecipIn,Conditions,Clouds,dailyrainin,SoftwareType,DateUTC
2013-01-12 00:03:00,0.0,-9.3,30.11,WSW,249,1.0,3.0,64,0.00,,,0.00,Wunderground v.1.15,2013-01-12 07:03:00,
2013-01-12 00:09:00,0.4,-9.2,30.12,WSW,250,2.0,3.0,63,0.00,,,0.00,Wunderground v.1.15,2013-01-12 07:09:00,
2013-01-12 00:14:00,0.5,-9.5,30.11,WSW,248,3.0,3.0,62,0.00,,,0.00,Wunderground v.1.15,2013-01-12 07:14:00,
2013-01-12 00:20:00,-0.5,-11.4,30.12,WSW,248,1.0,1.0,59,0.00,,,0.00,Wunderground v.1.15,2013-01-12 07:20:00,
2013-01-12 00:25:00,-1.6,-12.8,30.12,WSW,248,1.0,1.0,58,0.00,,,0.00,Wunderground v.1.15,2013-01-12 07:25:00,
2013-01-12 00:31:00,-3.4,-13.8,30.12,WSW,248,0.0,2.0,60,0.00,,,0.00,Wunderground v.1.15,2013-01-12 07:31:00,
2013-01-12 00:36:00,-2.8,-12.0,30.12,WSW,248,0.0,2.0,64,0.00,,,0.00,Wunderground v.1.15,2013-01-12 07:36:00,
2013-01-12 00:42:00,-2.8,-12.3,30.12,WSW,248,3.0,3.0,63,0.00,,,0.00,Wunderground v.1.15,2013-01-12 07:42:00,
2013-01-12 00:47:00,-3.7,-13.5,30.12,WSW,248,5.0,6.0,62,0.00,,,0.00,Wunderground v.1.15,2013-01-12 07:47:00,
2013-01-12 00:53:00,-4.7,-14.4,30.12,WSW,248,5.0,5.0,62,0.00,,,0.00,Wunderground v.1.15,2013-01-12 07:53:00,
2013-01-12 00:58:00,-5.5,-14.6,30.12,WSW,250,5.0,7.0,64,0.00,,,0.00,Wunderground v.1.15,2013-01-12 07:58:00,
2013-01-12 01:04:00,-3.5,-11.7,30.12,West,270,4.0,6.0,67,0.00,,,0.00,Wunderground v.1.15,2013-01-12 08:04:00,
2013-01-12 01:09:00,-4.4,-13.5,30.12,WSW,248,3.0,4.0,64,0.00,,,0.00,Wunderground v.1.15,2013-01-12 08:09:00,
2013-01-12 01:15:00,-5.1,-13.9,30.12,WSW,250,3.0,5.0,65,0.00,,,0.00,Wunderground v.1.15,2013-01-12 08:15:00,
2013-01-12 01:20:00,-5.5,-13.9,30.12,WSW,254,4.0,4.0,66,0.00,,,0.00,Wunderground v.1.15,2013-01-12 08:20:00,
2013-01-12 01:26:00,-6.0,-14.4,30.11,West,267,4.0,5.0,66,0.00,,,0.00,Wunderground v.1.15,2013-01-12 08:26:00,
2013-01-12 01:31:00,-6.5,-14.9,30.12,West,267,5.0,5.0,66,0.00,,,0.00,Wunderground v.1.15,2013-01-12 08:31:00,
2013-01-12 01:37:00,-6.7,-12.3,30.11,West,273,5.0,5.0,76,0.00,,,0.00,Wunderground v.1.15,2013-01-12 08:37:00,
2013-01-12 01:42:00,-7.2,-15.3,30.11,West,271,4.0,5.0,67,0.00,,,0.00,Wunderground v.1.15,2013-01-12 08:42:00,
2013-01-12 01:47:00,-6.8,-14.6,30.11,West,269,3.0,5.0,68,0.00,,,0.00,Wunderground v.1.15,2013-01-12 08:47:00,
2013-01-12 01:53:00,-7.3,-15.4,30.11,West,263,3.0,4.0,67,0.00,,,0.00,Wunderground v.1.15,2013-01-12 08:53:00,
2013-01-12 01:59:00,-7.3,-15.1,30.11,West,276,4.0,4.0,68,0.00,,,0.00,Wunderground v.1.15,2013-01-12 08:59:00,
2013-01-12 02:04:00,-6.9,-14.7,30.11,West,264,3.0,4.0,68,0.00,,,0.00,Wunderground v.1.15,2013-01-12 09:04:00,
2013-01-12 02:09:00,-7.0,-14.8,30.11,West,269,3.0,3.0,68,0.00,,,0.00,Wunderground v.1.15,2013-01-12 09:09:00,
2013-01-12 02:14:00,-7.0,-14.8,30.12,WNW,300,3.0,4.0,68,0.00,,,0.00,Wunderground v.1.15,2013-01-12 09:14:00,
2013-01-12 02:20:00,-8.6,-17.2,30.13,NNE,28,5.0,6.0,65,0.00,,,0.00,Wunderground v.1.15,2013-01-12 09:20:00,
2013-01-12 02:25:00,-8.5,-16.2,30.13,North,10,5.0,7.0,68,0.00,,,0.00,Wunderground v.1.15,2013-01-12 09:25:00,
2013-01-12 02:30:00,-8.5,-16.2,30.13,NNW,333,7.0,8.0,68,0.00,,,0.00,Wunderground v.1.15,2013-01-12 09:30:00,
2013-01-12 02:35:00,-7.7,-15.2,30.13,NW,311,8.0,11.0,69,0.00,,,0.00,Wunderground v.1.15,2013-01-12 09:35:00,
2013-01-12 02:40:00,-6.4,-13.9,30.13,NW,322,10.0,13.0,69,0.00,,,0.00,Wunderground v.1.15,2013-01-12 09:40:00,
2013-01-12 02:45:00,-4.9,-12.5,30.13,NW,319,9.0,15.0,69,0.00,,,0.00,Wunderground v.1.15,2013-01-12 09:45:00,
2013-01-12 02:50:00,-4.9,-13.4,30.13,North,360,7.0,10.0,66,0.00,,,0.00,Wunderground v.1.15,2013-01-12 09:50:00,
2013-01-12 02:55:00,-6.3,-15.3,30.13,North,360,7.0,11.0,64,0.00,,,0.00,Wunderground v.1.15,2013-01-12 09:55:00,
2013-01-12 03:00:00,-8.0,-17.3,30.13,NNW,337,6.0,7.0,63,0.00,,,0.00,Wunderground v.1.15,2013-01-12 10:00:00,
2013-01-12 03:05:00,-9.0,-17.9,30.13,NNW,334,8.0,10.0,64,0.00,,,0.00,Wunderground v.1.15,2013-01-12 10:05:00,
2013-01-12 03:10:00,-8.9,-17.8,30.13,NNW,346,6.0,9.0,64,0.00,,,0.00,Wunderground v.1.15,2013-01-12 10:10:00,
2013-01-12 03:15:00,-7.9,-16.2,30.14,NNW,339,10.0,10.0,66,0.00,,,0.00,Wunderground v.1.15,2013-01-12 10:15:00,
2013-01-12 03:20:00,-7.6,-16.3,30.13,North,360,5.0,9.0,65,0.00,,,0.00,Wunderground v.1.15,2013-01-12 10:20:00,
2013-01-12 03:25:00,-9.4,-18.3,30.14,NNE,13,5.0,9.0,64,0.00,,,0.00,Wunderground v.1.15,2013-01-12 10:25:00,
2013-01-12 03:30:00,-10.0,-18.0,30.14,North,355,6.0,6.0,67,0.00,,,0.00,Wunderground v.1.15,2013-01-12 10:30:00,
2013-01-12 03:35:00,-10.8,-18.4,30.14,NNW,336,4.0,7.0,68,0.00,,,0.00,Wunderground v.1.15,2013-01-12 10:35:00,
2013-01-12 03:40:00,-10.0,-17.1,30.14,NNW,346,6.0,8.0,70,0.00,,,0.00,Wunderground v.1.15,2013-01-12 10:40:00,
2013-01-12 03:45:00,-10.4,-17.8,30.14,NNW,331,6.0,8.0,69,0.00,,,0.00,Wunderground v.1.15,2013-01-12 10:45:00,
2013-01-12 03:50:00,-9.0,-13.3,30.14,NNW,332,5.0,5.0,81,0.00,,,0.00,Wunderground v.1.15,2013-01-12 10:50:00,
2013-01-12 03:55:00,-8.8,-16.2,30.13,NW,326,4.0,7.0,69,0.00,,,0.00,Wunderground v.1.15,2013-01-12 10:55:00,
2013-01-12 04:00:00,-9.5,-16.9,30.14,NNW,340,4.0,4.0,69,0.00,,,0.00,Wunderground v.1.15,2013-01-12 11:00:00,
2013-01-12 04:05:00,-11.1,-18.7,30.14,North,350,4.0,5.0,68,0.00,,,0.00,Wunderground v.1.15,2013-01-12 11:05:00,
2013-01-12 04:10:00,-12.4,-20.0,30.14,NNW,344,4.0,4.0,68,0.00,,,0.00,Wunderground v.1.15,2013-01-12 11:10:00,
2013-01-12 04:15:00,-11.8,-18.6,30.15,North,355,2.0,6.0,71,0.00,,,0.00,Wunderground v.1.15,2013-01-12 11:15:00,
2013-01-12 04:20:00,-11.7,-18.5,30.15,NW,326,4.0,4.0,71,0.00,,,0.00,Wunderground v.1.15,2013-01-12 11:20:00,
2013-01-12 04:25:00,-9.3,-15.9,30.15,NW,313,6.0,6.0,72,0.00,,,0.00,Wunderground v.1.15,2013-01-12 11:25:00,
2013-01-12 04:30:00,-8.5,-15.7,30.15,NW,306,5.0,7.0,70,0.00,,,0.00,Wunderground v.1.15,2013-01-12 11:30:00,
2013-01-12 04:35:00,-8.4,-16.1,30.15,NW,308,6.0,8.0,68,0.00,,,0.00,Wunderground v.1.15,2013-01-12 11:35:00,
2013-01-12 04:40:00,-8.2,-16.2,30.15,WNW,296,8.0,8.0,67,0.00,,,0.00,Wunderground v.1.15,2013-01-12 11:40:00,
2013-01-12 04:45:00,-8.1,-16.1,30.15,WNW,298,8.0,9.0,67,0.00,,,0.00,Wunderground v.1.15,2013-01-12 11:45:00,
2013-01-12 04:50:00,-8.0,-16.3,30.16,WNW,299,7.0,8.0,66,0.00,,,0.00,Wunderground v.1.15,2013-01-12 11:50:00,
2013-01-12 04:55:00,-8.1,-16.4,30.15,WNW,298,8.0,10.0,66,0.00,,,0.00,Wunderground v.1.15,2013-01-12 11:55:00,
2013-01-12 05:00:00,-8.6,-17.2,30.16,WNW,294,5.0,7.0,65,0.00,,,0.00,Wunderground v.1.15,2013-01-12 12:00:00,
2013-01-12 05:05:00,-9.3,-17.9,30.16,WNW,293,5.0,7.0,65,0.00,,,0.00,Wunderground v.1.15,2013-01-12 12:05:00,
2013-01-12 05:10:00,-9.9,-18.5,30.16,WNW,298,6.0,6.0,65,0.00,,,0.00,Wunderground v.1.15,2013-01-12 12:10:00,
2013-01-12 05:15:00,-10.0,-18.3,30.16,WNW,299,10.0,10.0,66,0.00,,,0.00,Wunderground v.1.15,2013-01-12 12:15:00,
2013-01-12 05:20:00,-9.5,-17.2,30.17,WNW,295,5.0,7.0,68,0.00,,,0.00,Wunderground v.1.15,2013-01-12 12:20:00,
2013-01-12 05:25:00,-9.2,-16.9,30.17,WNW,300,8.0,10.0,68,0.00,,,0.00,Wunderground v.1.15,2013-01-12 12:25:00,
2013-01-12 05:30:00,-8.8,-16.8,30.17,WNW,298,8.0,10.0,67,0.00,,,0.00,Wunderground v.1.15,2013-01-12 12:30:00,
2013-01-12 05:35:00,-8.8,-16.8,30.18,WNW,303,8.0,10.0,67,0.00,,,0.00,Wunderground v.1.15,2013-01-12 12:35:00,
2013-01-12 05:40:00,-9.1,-17.4,30.18,WNW,300,10.0,10.0,66,0.00,,,0.00,Wunderground v.1.15,2013-01-12 12:40:00,
2013-01-12 05:45:00,-9.6,-17.9,30.18,WNW,300,8.0,10.0,66,0.00,,,0.00,Wunderground v.1.15,2013-01-12 12:45:00,
2013-01-12 05:50:00,-10.1,-18.4,30.19,WNW,294,9.0,9.0,66,0.00,,,0.00,Wunderground v.1.15,2013-01-12 12:50:00,
2013-01-12 05:55:00,-10.3,-18.3,30.19,WNW,291,6.0,10.0,67,0.00,,,0.00,Wunderground v.1.15,2013-01-12 12:55:00,
2013-01-12 06:01:00,-10.7,-18.6,30.19,WNW,287,4.0,7.0,67,0.00,,,0.00,Wunderground v.1.15,2013-01-12 13:01:00,
2013-01-12 06:06:00,-11.3,-19.5,30.19,West,277,3.0,7.0,66,0.00,,,0.00,Wunderground v.1.15,2013-01-12 13:06:00,
2013-01-12 06:11:00,-12.2,-20.4,30.20,WNW,292,5.0,5.0,66,0.00,,,0.00,Wunderground v.1.15,2013-01-12 13:11:00,
2013-01-12 06:16:00,-12.8,-20.9,30.20,WNW,298,4.0,5.0,66,0.00,,,0.00,Wunderground v.1.15,2013-01-12 13:16:00,
2013-01-12 06:21:00,-13.0,-20.8,30.21,NW,305,4.0,5.0,67,0.00,,,0.00,Wunderground v.1.15,2013-01-12 13:21:00,
2013-01-12 06:26:00,-12.5,-20.1,30.22,NW,315,5.0,9.0,68,0.00,,,0.00,Wunderground v.1.15,2013-01-12 13:26:00,
2013-01-12 06:31:00,-12.2,-19.5,30.22,WNW,298,6.0,6.0,69,0.00,,,0.00,Wunderground v.1.15,2013-01-12 13:31:00,
2013-01-12 06:36:00,-11.8,-19.1,30.22,WNW,298,7.0,8.0,69,0.00,,,0.00,Wunderground v.1.15,2013-01-12 13:36:00,
2013-01-12 06:41:00,-11.2,-18.5,30.23,WNW,297,4.0,6.0,69,0.00,,,0.00,Wunderground v.1.15,2013-01-12 13:41:00,
2013-01-12 06:46:00,-11.7,-19.6,30.23,WNW,298,5.0,6.0,67,0.00,,,0.00,Wunderground v.1.15,2013-01-12 13:46:00,
2013-01-12 06:51:00,-12.3,-20.2,30.23,WNW,295,5.0,5.0,67,0.00,,,0.00,Wunderground v.1.15,2013-01-12 13:51:00,
2013-01-12 06:56:00,-12.3,-20.2,30.24,WNW,298,5.0,8.0,67,0.00,,,0.00,Wunderground v.1.15,2013-01-12 13:56:00,
2013-01-12 07:01:00,-12.0,-19.6,30.24,WNW,292,5.0,7.0,68,0.00,,,0.00,Wunderground v.1.15,2013-01-12 14:01:00,
2013-01-12 07:06:00,-12.0,-19.9,30.24,West,281,4.0,7.0,67,0.00,,,0.00,Wunderground v.1.15,2013-01-12 14:06:00,
2013-01-12 07:11:00,-12.5,-20.4,30.24,WNW,283,5.0,6.0,67,0.00,,,0.00,Wunderground v.1.15,2013-01-12 14:11:00,
2013-01-12 07:16:00,-12.5,-20.4,30.25,WNW,284,5.0,7.0,67,0.00,,,0.00,Wunderground v.1.15,2013-01-12 14:16:00,
2013-01-12 07:21:00,-12.4,-20.3,30.25,WNW,286,3.0,5.0,67,0.00,,,0.00,Wunderground v.1.15,2013-01-12 14:21:00,
2013-01-12 07:26:00,-12.9,-20.7,30.26,WNW,294,3.0,5.0,67,0.00,,,0.00,Wunderground v.1.15,2013-01-12 14:26:00,
2013-01-12 07:31:00,-13.2,-21.0,30.27,WNW,303,4.0,4.0,67,0.00,,,0.00,Wunderground v.1.15,2013-01-12 14:31:00,
2013-01-12 07:36:00,-13.4,-21.2,30.27,WNW,296,4.0,5.0,67,0.00,,,0.00,Wunderground v.1.15,2013-01-12 14:36:00,
2013-01-12 07:41:00,-13.1,-20.7,30.27,WNW,300,4.0,4.0,68,0.00,,,0.00,Wunderground v.1.15,2013-01-12 14:41:00,
2013-01-12 07:46:00,-12.9,-20.5,30.28,WNW,291,3.0,5.0,68,0.00,,,0.00,Wunderground v.1.15,2013-01-12 14:46:00,
2013-01-12 07:51:00,-12.6,-20.2,30.28,WNW,287,4.0,4.0,68,0.00,,,0.00,Wunderground v.1.15,2013-01-12 14:51:00,
2013-01-12 07:56:00,-12.5,-20.1,30.28,WNW,285,5.0,5.0,68,0.00,,,0.00,Wunderground v.1.15,2013-01-12 14:56:00,
2013-01-12 08:01:00,-12.2,-19.8,30.29,WNW,292,4.0,4.0,68,0.00,,,0.00,Wunderground v.1.15,2013-01-12 15:01:00,
2013-01-12 08:06:00,-12.2,-20.1,30.30,WNW,284,3.0,4.0,67,0.00,,,0.00,Wunderground v.1.15,2013-01-12 15:06:00,
2013-01-12 08:11:00,-12.2,-20.1,30.31,WNW,285,3.0,4.0,67,0.00,,,0.00,Wunderground v.1.15,2013-01-12 15:11:00,
2013-01-12 08:16:00,-12.2,-20.1,30.31,NW,309,5.0,5.0,67,0.00,,,0.00,Wunderground v.1.15,2013-01-12 15:16:00,
2013-01-12 08:21:00,-12.2,-20.1,30.32,WNW,294,4.0,5.0,67,0.00,,,0.00,Wunderground v.1.15,2013-01-12 15:21:00,
2013-01-12 08:26:00,-12.0,-19.9,30.33,WNW,295,4.0,5.0,67,0.00,,,0.00,Wunderground v.1.15,2013-01-12 15:26:00,
2013-01-12 08:31:00,-11.9,-19.8,30.33,WNW,295,3.0,5.0,67,0.00,,,0.00,Wunderground v.1.15,2013-01-12 15:31:00,
2013-01-12 08:36:00,-11.7,-19.6,30.33,WNW,300,3.0,5.0,67,0.00,,,0.00,Wunderground v.1.15,2013-01-12 15:36:00,
2013-01-12 08:41:00,-11.4,-19.3,30.34,WNW,283,3.0,4.0,67,0.00,,,0.00,Wunderground v.1.15,2013-01-12 15:41:00,
2013-01-12 08:46:00,-11.3,-19.2,30.34,West,276,6.0,6.0,67,0.00,,,0.00,Wunderground v.1.15,2013-01-12 15:46:00,
2013-01-12 08:51:00,-10.8,-18.7,30.34,West,274,6.0,7.0,67,0.00,,,0.00,Wunderground v.1.15,2013-01-12 15:51:00,
2013-01-12 08:56:00,-10.2,-18.2,30.34,West,275,4.0,7.0,67,0.00,,,0.00,Wunderground v.1.15,2013-01-12 15:56:00,
2013-01-12 09:01:00,-9.8,-17.8,30.34,West,275,2.0,4.0,67,0.00,,,0.00,Wunderground v.1.15,2013-01-12 16:01:00,
2013-01-12 09:06:00,-9.5,-17.8,30.35,WNW,290,5.0,5.0,66,0.00,,,0.00,Wunderground v.1.15,2013-01-12 16:06:00,
2013-01-12 09:11:00,-9.3,-17.6,30.34,WNW,291,6.0,8.0,66,0.00,,,0.00,Wunderground v.1.15,2013-01-12 16:11:00,
2013-01-12 09:16:00,-8.8,-17.1,30.35,WNW,293,5.0,8.0,66,0.00,,,0.00,Wunderground v.1.15,2013-01-12 16:16:00,
2013-01-12 09:21:00,-8.2,-16.5,30.35,WNW,296,5.0,7.0,66,0.00,,,0.00,Wunderground v.1.15,2013-01-12 16:21:00,
2013-01-12 09:26:00,-7.7,-16.1,30.36,NW,304,5.0,7.0,66,0.00,,,0.00,Wunderground v.1.15,2013-01-12 16:26:00,
2013-01-12 09:31:00,-7.2,-15.6,30.36,WNW,301,5.0,7.0,66,0.00,,,0.00,Wunderground v.1.15,2013-01-12 16:31:00,
2013-01-12 09:36:00,-6.7,-15.1,30.36,WNW,296,4.0,8.0,66,0.00,,,0.00,Wunderground v.1.15,2013-01-12 16:36:00,
2013-01-12 09:41:00,-6.3,-15.0,30.36,WNW,303,5.0,8.0,65,0.00,,,0.00,Wunderground v.1.15,2013-01-12 16:41:00,
2013-01-12 09:46:00,-5.8,-14.5,30.37,WNW,289,5.0,8.0,65,0.00,,,0.00,Wunderground v.1.15,2013-01-12 16:46:00,
2013-01-12 09:51:00,-4.9,-13.7,30.37,West,273,4.0,6.0,65,0.00,,,0.00,Wunderground v.1.15,2013-01-12 16:51:00,
2013-01-12 09:56:00,-4.1,-12.9,30.37,West,270,6.0,7.0,65,0.00,,,0.00,Wunderground v.1.15,2013-01-12 16:56:00,
2013-01-12 10:01:00,-3.6,-12.4,30.38,West,271,3.0,5.0,65,0.00,,,0.00,Wunderground v.1.15,2013-01-12 17:01:00,
2013-01-12 10:06:00,-3.1,-12.3,30.38,West,271,5.0,7.0,64,0.00,,,0.00,Wunderground v.1.15,2013-01-12 17:06:00,
2013-01-12 10:11:00,-2.8,-12.3,30.37,WNW,284,5.0,7.0,63,0.00,,,0.00,Wunderground v.1.15,2013-01-12 17:11:00,
2013-01-12 10:16:00,-2.3,-11.5,30.38,WNW,284,3.0,7.0,64,0.00,,,0.00,Wunderground v.1.15,2013-01-12 17:16:00,
2013-01-12 10:21:00,-2.7,-12.2,30.38,WNW,284,3.0,4.0,63,0.00,,,0.00,Wunderground v.1.15,2013-01-12 17:21:00,
2013-01-12 10:26:00,-2.4,-11.9,30.37,WNW,284,3.0,6.0,63,0.00,,,0.00,Wunderground v.1.15,2013-01-12 17:26:00,
2013-01-12 10:31:00,-1.8,-11.3,30.37,WNW,284,1.0,3.0,63,0.00,,,0.00,Wunderground v.1.15,2013-01-12 17:31:00,
2013-01-12 10:36:00,-0.9,-10.8,30.37,WNW,284,1.0,3.0,62,0.00,,,0.00,Wunderground v.1.15,2013-01-12 17:36:00,
2013-01-12 10:42:00,0.0,-10.3,30.37,WNW,284,0.0,2.0,61,0.00,,,0.00,Wunderground v.1.15,2013-01-12 17:42:00,
2013-01-12 10:47:00,0.9,-9.8,30.37,WNW,284,0.0,2.0,60,0.00,,,0.00,Wunderground v.1.15,2013-01-12 17:47:00,
2013-01-12 10:52:00,1.7,-9.3,30.37,WNW,284,0.0,0.0,59,0.00,,,0.00,Wunderground v.1.15,2013-01-12 17:52:00,
2013-01-12 10:57:00,1.5,-9.5,30.37,WNW,284,0.0,0.0,59,0.00,,,0.00,Wunderground v.1.15,2013-01-12 17:57:00,
2013-01-12 11:02:00,1.9,-8.8,30.37,WNW,284,0.0,0.0,60,0.00,,,0.00,Wunderground v.1.15,2013-01-12 18:02:00,
2013-01-12 11:07:00,2.3,-8.4,30.36,WNW,284,0.0,0.0,60,0.00,,,0.00,Wunderground v.1.15,2013-01-12 18:07:00,
2013-01-12 11:12:00,2.8,-8.0,30.36,WNW,284,0.0,0.0,60,0.00,,,0.00,Wunderground v.1.15,2013-01-12 18:12:00,
2013-01-12 11:17:00,3.6,-7.2,30.36,WNW,284,0.0,1.0,60,0.00,,,0.00,Wunderground v.1.15,2013-01-12 18:17:00,
2013-01-12 11:22:00,4.0,-7.5,30.36,WNW,284,0.0,0.0,58,0.00,,,0.00,Wunderground v.1.15,2013-01-12 18:22:00,
2013-01-12 11:27:00,4.7,-6.9,30.36,WNW,284,0.0,0.0,58,0.00,,,0.00,Wunderground v.1.15,2013-01-12 18:27:00,
2013-01-12 11:32:00,6.1,-5.9,30.35,WNW,284,0.0,0.0,57,0.00,,,0.00,Wunderground v.1.15,2013-01-12 18:32:00,
2013-01-12 11:37:00,6.9,-5.9,30.36,WNW,285,0.0,2.0,55,0.00,,,0.00,Wunderground v.1.15,2013-01-12 18:37:00,
2013-01-12 11:42:00,6.7,-6.5,30.35,WNW,286,0.0,0.0,54,0.00,,,0.00,Wunderground v.1.15,2013-01-12 18:42:00,
2013-01-12 11:47:00,6.4,-7.1,30.34,WNW,286,0.0,0.0,53,0.00,,,0.00,Wunderground v.1.15,2013-01-12 18:47:00,
2013-01-12 11:52:00,6.3,-7.2,30.34,NW,325,1.0,2.0,53,0.00,,,0.00,Wunderground v.1.15,2013-01-12 18:52:00,
2013-01-12 11:57:00,6.3,-7.2,30.34,NW,325,0.0,2.0,53,0.00,,,0.00,Wunderground v.1.15,2013-01-12 18:57:00,
2013-01-12 12:02:00,6.8,-6.7,30.34,NW,325,0.0,0.0,53,0.00,,,0.00,Wunderground v.1.15,2013-01-12 19:02:00,
2013-01-12 12:07:00,7.3,-6.7,30.34,NNW,329,0.0,0.0,52,0.00,,,0.00,Wunderground v.1.15,2013-01-12 19:07:00,
2013-01-12 12:12:00,7.8,-6.2,30.33,NNW,329,0.0,0.0,52,0.00,,,0.00,Wunderground v.1.15,2013-01-12 19:12:00,
2013-01-12 12:17:00,7.6,-6.0,30.33,NNW,329,0.0,0.0,53,0.00,,,0.00,Wunderground v.1.15,2013-01-12 19:17:00,
2013-01-12 12:22:00,7.7,-5.9,30.33,NNW,329,0.0,0.0,53,0.00,,,0.00,Wunderground v.1.15,2013-01-12 19:22:00,
2013-01-12 12:28:00,8.4,-4.5,30.33,NNW,329,0.0,0.0,55,0.00,,,0.00,Wunderground v.1.15,2013-01-12 19:28:00,
2013-01-12 12:33:00,9.7,-2.9,30.33,NNW,329,2.0,3.0,56,0.00,,,0.00,Wunderground v.1.15,2013-01-12 19:33:00,
2013-01-12 12:38:00,9.8,-4.3,30.33,SE,131,3.0,5.0,52,0.00,,,0.00,Wunderground v.1.15,2013-01-12 19:38:00,
2013-01-12 12:43:00,10.4,-3.0,30.33,SE,132,2.0,4.0,54,0.00,,,0.00,Wunderground v.1.15,2013-01-12 19:43:00,
2013-01-12 12:48:00,10.2,-4.4,30.33,SE,132,0.0,4.0,51,0.00,,,0.00,Wunderground v.1.15,2013-01-12 19:48:00,
2013-01-12 12:53:00,9.7,-4.8,30.33,SE,134,4.0,4.0,51,0.00,,,0.00,Wunderground v.1.15,2013-01-12 19:53:00,
2013-01-12 12:58:00,9.7,-3.6,30.32,SE,139,4.0,6.0,54,0.00,,,0.00,Wunderground v.1.15,2013-01-12 19:58:00,
2013-01-12 13:03:00,10.4,-3.0,30.32,SE,145,6.0,7.0,54,0.00,,,0.00,Wunderground v.1.15,2013-01-12 20:03:00,
2013-01-12 13:08:00,10.9,-2.1,30.32,SE,144,5.0,8.0,55,0.00,,,0.00,Wunderground v.1.15,2013-01-12 20:08:00,
2013-01-12 13:13:00,10.0,-3.8,30.32,SSE,150,7.0,8.0,53,0.00,,,0.00,Wunderground v.1.15,2013-01-12 20:13:00,
2013-01-12 13:18:00,9.5,-3.8,30.32,SSE,148,6.0,8.0,54,0.00,,,0.00,Wunderground v.1.15,2013-01-12 20:18:00,
2013-01-12 13:23:00,9.1,-4.2,30.32,SSE,149,5.0,7.0,54,0.00,,,0.00,Wunderground v.1.15,2013-01-12 20:23:00,
2013-01-12 13:28:00,8.9,-4.0,30.31,SSE,157,5.0,7.0,55,0.00,,,0.00,Wunderground v.1.15,2013-01-12 20:28:00,
2013-01-12 13:33:00,8.6,-4.3,30.31,South,169,6.0,6.0,55,0.00,,,0.00,Wunderground v.1.15,2013-01-12 20:33:00,
2013-01-12 13:38:00,7.8,-4.3,30.31,SSE,168,5.0,7.0,57,0.00,,,0.00,Wunderground v.1.15,2013-01-12 20:38:00,
2013-01-12 13:43:00,7.6,-4.5,30.32,SSE,168,3.0,5.0,57,0.00,,,0.00,Wunderground v.1.15,2013-01-12 20:43:00,
2013-01-12 13:48:00,8.2,-3.9,30.31,South,169,1.0,5.0,57,0.00,,,0.00,Wunderground v.1.15,2013-01-12 20:48:00,
2013-01-12 13:53:00,9.6,-3.0,30.32,SSE,168,0.0,3.0,56,0.00,,,0.00,Wunderground v.1.15,2013-01-12 20:53:00,
2013-01-12 13:58:00,10.5,-3.3,30.32,SSE,167,0.0,3.0,53,0.00,,,0.00,Wunderground v.1.15,2013-01-12 20:58:00,
2013-01-12 14:03:00,10.4,-4.2,30.32,SSE,167,0.0,0.0,51,0.00,,,0.00,Wunderground v.1.15,2013-01-12 21:03:00,
2013-01-12 14:08:00,9.8,-4.7,30.32,SSE,167,0.0,0.0,51,0.00,,,0.00,Wunderground v.1.15,2013-01-12 21:08:00,
2013-01-12 14:13:00,9.3,-4.8,30.32,SSE,167,0.0,0.0,52,0.00,,,0.00,Wunderground v.1.15,2013-01-12 21:13:00,
2013-01-12 14:18:00,9.4,-3.9,30.32,SSE,167,0.0,0.0,54,0.00,,,0.00,Wunderground v.1.15,2013-01-12 21:18:00,
2013-01-12 14:23:00,9.6,-4.1,30.32,SSE,167,0.0,0.0,53,0.00,,,0.00,Wunderground v.1.15,2013-01-12 21:23:00,
2013-01-12 14:28:00,9.4,-3.5,30.32,SSE,167,0.0,0.0,55,0.00,,,0.00,Wunderground v.1.15,2013-01-12 21:28:00,
2013-01-12 14:33:00,9.0,-3.5,30.32,SSE,167,0.0,0.0,56,0.00,,,0.00,Wunderground v.1.15,2013-01-12 21:33:00,
2013-01-12 14:38:00,8.7,-4.6,30.32,SSE,167,0.0,0.0,54,0.00,,,0.00,Wunderground v.1.15,2013-01-12 21:38:00,
2013-01-12 14:43:00,8.4,-5.2,30.32,SSE,167,0.0,0.0,53,0.00,,,0.00,Wunderground v.1.15,2013-01-12 21:43:00,
2013-01-12 14:48:00,8.5,-5.2,30.32,SSE,167,0.0,0.0,53,0.00,,,0.00,Wunderground v.1.15,2013-01-12 21:48:00,
2013-01-12 14:53:00,9.0,-3.9,30.32,SSE,167,0.0,0.0,55,0.00,,,0.00,Wunderground v.1.15,2013-01-12 21:53:00,
2013-01-12 14:58:00,8.7,-4.2,30.32,SSE,167,0.0,0.0,55,0.00,,,0.00,Wunderground v.1.15,2013-01-12 21:58:00,
2013-01-12 15:03:00,8.5,-4.8,30.32,SSE,167,0.0,0.0,54,0.00,,,0.00,Wunderground v.1.15,2013-01-12 22:03:00,
2013-01-12 15:08:00,8.3,-5.0,30.32,SSE,167,0.0,0.0,54,0.00,,,0.00,Wunderground v.1.15,2013-01-12 22:08:00,
2013-01-12 15:13:00,8.0,-4.5,30.32,SSE,167,3.0,4.0,56,0.00,,,0.00,Wunderground v.1.15,2013-01-12 22:13:00,
2013-01-12 15:18:00,8.0,-4.1,30.33,SSE,167,1.0,4.0,57,0.00,,,0.00,Wunderground v.1.15,2013-01-12 22:18:00,
2013-01-12 15:23:00,7.7,-4.4,30.33,SSE,165,2.0,5.0,57,0.00,,,0.00,Wunderground v.1.15,2013-01-12 22:23:00,
2013-01-12 15:28:00,7.3,-4.8,30.33,SSE,165,3.0,5.0,57,0.00,,,0.00,Wunderground v.1.15,2013-01-12 22:28:00,
2013-01-12 15:33:00,6.7,-5.3,30.34,SSE,165,2.0,3.0,57,0.00,,,0.00,Wunderground v.1.15,2013-01-12 22:33:00,
2013-01-12 15:38:00,6.5,-4.5,30.33,SSE,165,0.0,3.0,60,0.00,,,0.00,Wunderground v.1.15,2013-01-12 22:38:00,
2013-01-12 15:43:00,6.7,-3.9,30.33,SSE,165,0.0,1.0,61,0.00,,,0.00,Wunderground v.1.15,2013-01-12 22:43:00,
2013-01-12 15:49:00,7.0,-3.6,30.34,SSE,165,0.0,1.0,61,0.00,,,0.00,Wunderground v.1.15,2013-01-12 22:49:00,
2013-01-12 15:54:00,6.6,-4.7,30.34,SSE,165,1.0,2.0,59,0.00,,,0.00,Wunderground v.1.15,2013-01-12 22:54:00,
2013-01-12 15:59:00,5.8,-5.1,30.34,SSE,166,3.0,3.0,60,0.00,,,0.00,Wunderground v.1.15,2013-01-12 22:59:00,
2013-01-12 16:04:00,5.1,-5.8,30.35,SSE,165,2.0,3.0,60,0.00,,,0.00,Wunderground v.1.15,2013-01-12 23:04:00,
2013-01-12 16:09:00,4.9,-6.0,30.34,SSE,165,1.0,3.0,60,0.00,,,0.00,Wunderground v.1.15,2013-01-12 23:09:00,
2013-01-12 16:14:00,4.5,-6.3,30.35,SSE,165,1.0,2.0,60,0.00,,,0.00,Wunderground v.1.15,2013-01-12 23:14:00,
2013-01-12 16:19:00,4.1,-6.0,30.35,SSE,165,0.0,2.0,62,0.00,,,0.00,Wunderground v.1.15,2013-01-12 23:19:00,
2013-01-12 16:24:00,4.1,-5.4,30.35,SSE,165,2.0,3.0,64,0.00,,,0.00,Wunderground v.1.15,2013-01-12 23:24:00,
2013-01-12 16:29:00,3.6,-5.9,30.35,SSE,165,3.0,4.0,64,0.00,,,0.00,Wunderground v.1.15,2013-01-12 23:29:00,
2013-01-12 16:34:00,3.2,-6.2,30.35,SSE,165,1.0,3.0,64,0.00,,,0.00,Wunderground v.1.15,2013-01-12 23:34:00,
2013-01-12 16:39:00,3.2,-6.6,30.35,SSE,165,0.0,3.0,63,0.00,,,0.00,Wunderground v.1.15,2013-01-12 23:39:00,
2013-01-12 16:44:00,3.3,-6.2,30.36,West,267,4.0,4.0,64,0.00,,,0.00,Wunderground v.1.15,2013-01-12 23:44:00,
2013-01-12 16:49:00,3.1,-6.3,30.35,West,267,0.0,4.0,64,0.00,,,0.00,Wunderground v.1.15,2013-01-12 23:49:00,
2013-01-12 16:54:00,3.1,-6.7,30.36,West,267,3.0,3.0,63,0.00,,,0.00,Wunderground v.1.15,2013-01-12 23:54:00,
2013-01-12 16:59:00,2.8,-7.0,30.36,WNW,298,2.0,6.0,63,0.00,,,0.00,Wunderground v.1.15,2013-01-12 23:59:00,
2013-01-12 17:04:00,2.3,-7.4,30.35,WNW,298,1.0,3.0,63,0.00,,,0.00,Wunderground v.1.15,2013-01-13 00:04:00,
2013-01-12 17:09:00,2.0,-7.7,30.36,WNW,298,1.0,3.0,63,0.00,,,0.00,Wunderground v.1.15,2013-01-13 00:09:00,
2013-01-12 17:14:00,1.9,-7.5,30.36,WNW,298,0.0,3.0,64,0.00,,,0.00,Wunderground v.1.15,2013-01-13 00:14:00,
2013-01-12 17:19:00,1.5,-7.9,30.36,WNW,298,1.0,3.0,64,0.00,,,0.00,Wunderground v.1.15,2013-01-13 00:19:00,
2013-01-12 17:24:00,1.1,-7.9,30.36,WNW,298,1.0,3.0,65,0.00,,,0.00,Wunderground v.1.15,2013-01-13 00:24:00,
2013-01-12 17:29:00,0.1,-8.9,30.36,WNW,298,1.0,3.0,65,0.00,,,0.00,Wunderground v.1.15,2013-01-13 00:29:00,
2013-01-12 17:34:00,-0.4,-8.8,30.36,WNW,298,1.0,2.0,67,0.00,,,0.00,Wunderground v.1.15,2013-01-13 00:34:00,
2013-01-12 17:39:00,-0.5,-8.5,30.36,WNW,298,2.0,2.0,68,0.00,,,0.00,Wunderground v.1.15,2013-01-13 00:39:00,
2013-01-12 17:44:00,-0.4,-8.4,30.36,WNW,298,1.0,2.0,68,0.00,,,0.00,Wunderground v.1.15,2013-01-13 00:44:00,
2013-01-12 17:49:00,-0.5,-8.5,30.37,WNW,298,4.0,4.0,68,0.00,,,0.00,Wunderground v.1.15,2013-01-13 00:49:00,
2013-01-12 17:54:00,-1.1,-9.1,30.37,WNW,300,3.0,5.0,68,0.00,,,0.00,Wunderground v.1.15,2013-01-13 00:54:00,
2013-01-12 17:59:00,-1.6,-9.3,30.37,WNW,300,4.0,5.0,69,0.00,,,0.00,Wunderground v.1.15,2013-01-13 00:59:00,
2013-01-12 18:04:00,-1.9,-9.6,30.37,WNW,300,4.0,5.0,69,0.00,,,0.00,Wunderground v.1.15,2013-01-13 01:04:00,
2013-01-12 18:09:00,-1.8,-8.9,30.37,WNW,300,3.0,5.0,71,0.00,,,0.00,Wunderground v.1.15,2013-01-13 01:09:00,
2013-01-12 18:14:00,-1.6,-8.7,30.38,WNW,302,3.0,5.0,71,0.00,,,0.00,Wunderground v.1.15,2013-01-13 01:14:00,
2013-01-12 18:19:00,-1.4,-8.5,30.38,WNW,302,3.0,5.0,71,0.00,,,0.00,Wunderground v.1.15,2013-01-13 01:19:00,
2013-01-12 18:24:00,-1.4,-8.2,30.38,WNW,302,2.0,5.0,72,0.00,,,0.00,Wunderground v.1.15,2013-01-13 01:24:00,
2013-01-12 18:29:00,-1.2,-8.0,30.38,WNW,302,2.0,5.0,72,0.00,,,0.00,Wunderground v.1.15,2013-01-13 01:29:00,
2013-01-12 18:34:00,-0.7,-7.3,30.38,WNW,302,1.0,3.0,73,0.00,,,0.00,Wunderground v.1.15,2013-01-13 01:34:00,
2013-01-12 18:39:00,-0.4,-7.3,30.39,WNW,302,1.0,3.0,72,0.00,,,0.00,Wunderground v.1.15,2013-01-13 01:39:00,
2013-01-12 18:44:00,-0.3,-7.2,30.39,WNW,302,1.0,2.0,72,0.00,,,0.00,Wunderground v.1.15,2013-01-13 01:44:00,
2013-01-12 18:49:00,-0.1,-7.0,30.39,NW,315,4.0,6.0,72,0.00,,,0.00,Wunderground v.1.15,2013-01-13 01:49:00,
2013-01-12 18:54:00,0.1,-6.5,30.39,NW,315,3.0,4.0,73,0.00,,,0.00,Wunderground v.1.15,2013-01-13 01:54:00,
2013-01-12 18:59:00,0.4,-6.2,30.40,NW,314,3.0,4.0,73,0.00,,,0.00,Wunderground v.1.15,2013-01-13 01:59:00,
2013-01-12 19:04:00,0.7,-5.9,30.40,NW,315,2.0,3.0,73,0.00,,,0.00,Wunderground v.1.15,2013-01-13 02:04:00,
2013-01-12 19:09:00,1.0,-5.4,30.40,NW,315,2.0,3.0,74,0.00,,,0.00,Wunderground v.1.15,2013-01-13 02:09:00,
2013-01-12 19:14:00,1.2,-5.2,30.40,NW,315,1.0,2.0,74,0.00,,,0.00,Wunderground v.1.15,2013-01-13 02:14:00,
2013-01-12 19:19:00,1.4,-4.7,30.41,NW,315,1.0,3.0,75,0.00,,,0.00,Wunderground v.1.15,2013-01-13 02:19:00,
2013-01-12 19:24:00,1.6,-4.5,30.41,NW,314,0.0,2.0,75,0.00,,,0.00,Wunderground v.1.15,2013-01-13 02:24:00,
2013-01-12 19:29:00,1.8,-4.3,30.41,NW,315,0.0,2.0,75,0.00,,,0.00,Wunderground v.1.15,2013-01-13 02:29:00,
2013-01-12 19:34:00,1.9,-4.2,30.41,NW,315,0.0,0.0,75,0.00,,,0.00,Wunderground v.1.15,2013-01-13 02:34:00,
2013-01-12 19:40:00,2.0,-4.1,30.41,NW,315,1.0,1.0,75,0.00,,,0.00,Wunderground v.1.15,2013-01-13 02:40:00,
2013-01-12 19:45:00,2.0,-4.4,30.41,NW,314,3.0,3.0,74,0.00,,,0.00,Wunderground v.1.15,2013-01-13 02:45:00,
2013-01-12 19:50:00,2.1,-4.3,30.41,NW,315,2.0,2.0,74,0.00,,,0.00,Wunderground v.1.15,2013-01-13 02:50:00,
2013-01-12 19:55:00,2.2,-4.2,30.41,NW,314,0.0,2.0,74,0.00,,,0.00,Wunderground v.1.15,2013-01-13 02:55:00,
2013-01-12 20:00:00,2.2,-4.2,30.41,NW,314,0.0,1.0,74,0.00,,,0.00,Wunderground v.1.15,2013-01-13 03:00:00,
2013-01-12 20:05:00,2.2,-3.9,30.41,NW,315,0.0,1.0,75,0.00,,,0.00,Wunderground v.1.15,2013-01-13 03:05:00,
2013-01-12 20:10:00,2.0,-4.1,30.41,NW,315,0.0,0.0,75,0.00,,,0.00,Wunderground v.1.15,2013-01-13 03:10:00,
2013-01-12 20:15:00,1.8,-4.3,30.41,NW,314,0.0,0.0,75,0.00,,,0.00,Wunderground v.1.15,2013-01-13 03:15:00,
2013-01-12 20:20:00,1.5,-4.6,30.41,NW,314,0.0,0.0,75,0.00,,,0.00,Wunderground v.1.15,2013-01-13 03:20:00,
2013-01-12 20:25:00,1.2,-4.9,30.41,NW,315,0.0,1.0,75,0.00,,,0.00,Wunderground v.1.15,2013-01-13 03:25:00,
2013-01-12 20:30:00,0.6,-5.5,30.41,NW,315,1.0,1.0,75,0.00,,,0.00,Wunderground v.1.15,2013-01-13 03:30:00,
2013-01-12 20:35:00,0.0,-6.0,30.41,NW,314,0.0,1.0,75,0.00,,,0.00,Wunderground v.1.15,2013-01-13 03:35:00,
2013-01-12 20:40:00,-0.4,-6.2,30.41,NW,314,1.0,2.0,76,0.00,,,0.00,Wunderground v.1.15,2013-01-13 03:40:00,
2013-01-12 20:45:00,-0.7,-6.7,30.41,NW,314,1.0,2.0,75,0.00,,,0.00,Wunderground v.1.15,2013-01-13 03:45:00,
2013-01-12 20:50:00,-0.9,-6.9,30.41,NW,315,3.0,4.0,75,0.00,,,0.00,Wunderground v.1.15,2013-01-13 03:50:00,
2013-01-12 20:55:00,-1.2,-7.2,30.41,NW,317,4.0,5.0,75,0.00,,,0.00,Wunderground v.1.15,2013-01-13 03:55:00,
2013-01-12 21:00:00,-1.3,-7.3,30.41,NW,317,1.0,3.0,75,0.00,,,0.00,Wunderground v.1.15,2013-01-13 04:00:00,
2013-01-12 21:05:00,-1.2,-7.2,30.41,NW,317,2.0,4.0,75,0.00,,,0.00,Wunderground v.1.15,2013-01-13 04:05:00,
2013-01-12 21:10:00,-1.1,-6.8,30.41,NW,317,0.0,2.0,76,0.00,,,0.00,Wunderground v.1.15,2013-01-13 04:10:00,
2013-01-12 21:15:00,-1.0,-6.7,30.41,NW,317,0.0,2.0,76,0.00,,,0.00,Wunderground v.1.15,2013-01-13 04:15:00,
2013-01-12 21:20:00,-0.9,-6.6,30.42,NW,317,0.0,2.0,76,0.00,,,0.00,Wunderground v.1.15,2013-01-13 04:20:00,
2013-01-12 21:25:00,-0.8,-6.5,30.42,NW,317,2.0,2.0,76,0.00,,,0.00,Wunderground v.1.15,2013-01-13 04:25:00,
2013-01-12 21:30:00,-0.8,-6.5,30.42,NW,317,3.0,3.0,76,0.00,,,0.00,Wunderground v.1.15,2013-01-13 04:30:00,
2013-01-12 21:35:00,-0.9,-6.6,30.42,NW,317,0.0,3.0,76,0.00,,,0.00,Wunderground v.1.15,2013-01-13 04:35:00,
2013-01-12 21:40:00,-1.2,-6.9,30.42,NW,317,0.0,1.0,76,0.00,,,0.00,Wunderground v.1.15,2013-01-13 04:40:00,
2013-01-12 21:45:00,-1.6,-7.3,30.42,NW,317,2.0,2.0,76,0.00,,,0.00,Wunderground v.1.15,2013-01-13 04:45:00,
2013-01-12 21:50:00,-1.7,-7.4,30.42,NW,317,0.0,1.0,76,0.00,,,0.00,Wunderground v.1.15,2013-01-13 04:50:00,
2013-01-12 21:55:00,-1.8,-7.3,30.43,NW,317,0.0,1.0,77,0.00,,,0.00,Wunderground v.1.15,2013-01-13 04:55:00,
2013-01-12 22:00:00,-2.2,-7.6,30.43,NW,317,2.0,2.0,77,0.00,,,0.00,Wunderground v.1.15,2013-01-13 05:00:00,
2013-01-12 22:03:00,-2.5,-7.9,30.42,NW,317,2.0,2.0,77,0.00,,,0.00,Wunderground v.1.15,2013-01-13 05:03:00,
2013-01-12 22:08:00,-2.6,-8.0,30.43,NW,317,1.0,3.0,77,0.00,,,0.00,Wunderground v.1.15,2013-01-13 05:08:00,
2013-01-12 22:13:00,-2.5,-7.7,30.43,NW,317,1.0,2.0,78,0.00,,,0.00,Wunderground v.1.15,2013-01-13 05:13:00,
2013-01-12 22:18:00,-2.1,-7.3,30.43,NW,317,0.0,2.0,78,0.00,,,0.00,Wunderground v.1.15,2013-01-13 05:18:00,
2013-01-12 22:23:00,-2.1,-7.0,30.43,NW,317,0.0,1.0,79,0.00,,,0.00,Wunderground v.1.15,2013-01-13 05:23:00,
2013-01-12 22:28:00,-2.4,-7.6,30.43,NW,317,1.0,2.0,78,0.00,,,0.00,Wunderground v.1.15,2013-01-13 05:28:00,
2013-01-12 22:33:00,-2.8,-8.0,30.43,NW,317,2.0,2.0,78,0.00,,,0.00,Wunderground v.1.15,2013-01-13 05:33:00,
2013-01-12 22:38:00,-2.8,-7.7,30.43,NW,317,2.0,4.0,79,0.00,,,0.00,Wunderground v.1.15,2013-01-13 05:38:00,
2013-01-12 22:43:00,-3.3,-8.4,30.43,NW,317,1.0,3.0,78,0.00,,,0.00,Wunderground v.1.15,2013-01-13 05:43:00,
2013-01-12 22:48:00,-3.8,-8.7,30.44,NW,317,4.0,5.0,79,0.00,,,0.00,Wunderground v.1.15,2013-01-13 05:48:00,
2013-01-12 22:53:00,-3.9,-8.8,30.43,NW,317,3.0,4.0,79,0.00,,,0.00,Wunderground v.1.15,2013-01-13 05:53:00,
2013-01-12 22:58:00,-3.9,-8.8,30.44,NW,317,5.0,6.0,79,0.00,,,0.00,Wunderground v.1.15,2013-01-13 05:58:00,
2013-01-12 23:03:00,-4.5,-9.4,30.44,NW,317,2.0,5.0,79,0.00,,,0.00,Wunderground v.1.15,2013-01-13 06:03:00,
2013-01-12 23:08:00,-6.0,-11.1,30.44,NW,317,2.0,5.0,78,0.00,,,0.00,Wunderground v.1.15,2013-01-13 06:08:00,
2013-01-12 23:13:00,-7.0,-12.1,30.44,NW,317,0.0,3.0,78,0.00,,,0.00,Wunderground v.1.15,2013-01-13 06:13:00,
2013-01-12 23:18:00,-7.0,-11.8,30.45,NW,317,0.0,3.0,79,0.00,,,0.00,Wunderground v.1.15,2013-01-13 06:18:00,
2013-01-12 23:23:00,-7.4,-12.4,30.44,NW,317,0.0,0.0,78,0.00,,,0.00,Wunderground v.1.15,2013-01-13 06:23:00,
2013-01-12 23:28:00,-7.9,-12.9,30.45,NW,317,0.0,0.0,78,0.00,,,0.00,Wunderground v.1.15,2013-01-13 06:28:00,
2013-01-12 23:33:00,-8.0,-13.0,30.44,NW,317,0.0,0.0,78,0.00,,,0.00,Wunderground v.1.15,2013-01-13 06:33:00,
2013-01-12 23:38:00,-7.7,-12.5,30.45,NW,317,1.0,2.0,79,0.00,,,0.00,Wunderground v.1.15,2013-01-13 06:38:00,
2013-01-12 23:43:00,-7.9,-12.7,30.44,NW,317,1.0,2.0,79,0.00,,,0.00,Wunderground v.1.15,2013-01-13 06:43:00,
2013-01-12 23:48:00,-8.5,-13.5,30.44,NW,317,2.0,3.0,78,0.00,,,0.00,Wunderground v.1.15,2013-01-13 06:48:00,
2013-01-12 23:53:00,-9.1,-14.1,30.45,NW,317,5.0,6.0,78,0.00,,,0.00,Wunderground v.1.15,2013-01-13 06:53:00,
2013-01-12 23:58:00,-10.0,-15.2,30.45,WNW,294,3.0,6.0,77,0.00,,,0.00,Wunderground v.1.15,2013-01-13 06:58:00,